Regional Weather Roundup
Issued by NWS

Home | Current Version | Previous Version | Text Only | Print | Product List | Glossary On
Versions: 1 2 3 4 5 6 7 8 9 10 11 12 13 14 15 16 17 18 19 20 21 22 23 24 25 26 27 28 29 30 31 32 33 34 35 36 37 38 39 40 41 42 43 44 45 46 47 48 49 50
000
ASUS43 KOAX 182010
RWRNE

WEATHER ROUNDUP FOR NEBRASKA
NATIONAL WEATHER SERVICE OMAHA NE
300 PM CDT FRI AUG 18 2017

NOTES: SATELLITE DATA IS BEING USED TO AUGMENT CLOUD COVER ABOVE
       12000 FEET.
       "FAIR" INDICATES FEW OR NO CLOUDS BELOW 12,000 FEET WITH NO
       SIGNIFICANT WEATHER AND/OR OBSTRUCTIONS TO VISIBILITY.


NEZ001>004-019>022-054>056-182100-
NEBRASKA PANHANDLE

CITY           SKY/WX    TMP DP  RH WIND       PRES   REMARKS
SCOTTSBLUFF    SUNNY     87  41  19 VRB5      30.09F
ALLIANCE       SUNNY     84  42  22 W8        30.08F
CHADRON        SUNNY     87  39  18 NW10      30.03F
GORDON         FAIR      85  47  26 N10       30.04F
KIMBALL        SUNNY     83  44  25 N3        30.16F
SIDNEY         SUNNY     87  37  17 VRB7      30.13F
$$

NEZ057>060-069>072-079>082-182100-
SOUTHWEST NEBRASKA

CITY           SKY/WX    TMP DP  RH WIND       PRES   REMARKS
NORTH PLATTE   SUNNY     88  50  27 MISG      30.02F
IMPERIAL       SUNNY     86  49  27 NE5       30.07F
LEXINGTON      SUNNY     85  57  37 N3        30.00F
MCCOOK         SUNNY     88  57  34 N6        30.02F
OGALLALA       SUNNY     86  43  22 CALM      30.07S
$$

NEZ005>010-023>029-035>040-094-182100-
NORTH CENTRAL NEBRASKA

CITY           SKY/WX    TMP DP  RH WIND       PRES   REMARKS
VALENTINE      SUNNY     87  47  24 NW10G20   30.00R
AINSWORTH      SUNNY     82  60  45 N12       29.99S
BROKEN BOW     SUNNY     89  51  27 NW7       29.99F
O`NEILL        SUNNY     82  64  54 N9        29.95F
ORD            SUNNY     85  55  35 NW9       29.95F
THEDFORD       SUNNY     88  48  25 W13G24    30.02S
$$

NEZ041-046>049-061>064-073>077-083>087-182100-
SOUTH CENTRAL NEBRASKA

CITY           SKY/WX    TMP DP  RH WIND       PRES   REMARKS
GRAND ISLAND   SUNNY     85  62  46 NW6       29.97S
AURORA         SUNNY     82  65  56 W3        29.96S
HASTINGS       SUNNY     84  62  47 N8        29.99S
HEBRON         SUNNY     86  65  49 W5        29.95S
HOLDREGE       SUNNY     82  62  51 N5        30.00S
KEARNEY        SUNNY     85  61  44 N6        29.99S
YORK           SUNNY     81  64  57 CALM      29.96S
$$

NEZ011>018-030>034-042>045-182100-
NORTHEAST NEBRASKA

CITY           SKY/WX    TMP DP  RH WIND       PRES   REMARKS
NORFOLK        SUNNY     81  63  54 W8        29.91S
ALBION         SUNNY     84  63  49 W3        29.94F
BLAIR          SUNNY     81  64  56 W6        29.92S
COLUMBUS       SUNNY     82  67  60 VRB7      29.94F
FREMONT        SUNNY     82  64  54 SW5       29.92F
TEKAMAH        SUNNY     82  64  54 W3        29.90F
WAYNE          SUNNY     80  69  69 SW3       29.91S
$$

NEZ050>053-065>068-078-088>093-182100-
SOUTHEAST NEBRASKA

CITY           SKY/WX    TMP DP  RH WIND       PRES   REMARKS
LINCOLN        SUNNY     85  65  51 N7        29.93F
OMAHA EPPLEY   PTSUNNY   87  59  38 W7        29.90F
BEATRICE       SUNNY     85  66  51 NW6       29.94S
FALLS CITY     SUNNY     87  64  46 N8        29.90F
NEBRASKA CITY  MOSUNNY   84  64  50 NW5       29.93S
PLATTSMOUTH    MOSUNNY   83  61  48 W5        29.92F
$$

NEZ044-045-051>053-067-182100-
OMAHA AREA

CITY           SKY/WX    TMP DP  RH WIND       PRES   REMARKS
OMAHA EPPLEY   PTSUNNY   87  59  38 W7        29.90F
BLAIR          SUNNY     81  64  56 W6        29.92S
FREMONT        SUNNY     82  64  54 SW5       29.92F
MILLARD        SUNNY     85  64  49 W6        29.91F
OFFUTT AFB     SUNNY     88  58  36 SW13      29.90F
PLATTSMOUTH    MOSUNNY   83  61  48 W5        29.92F
WAHOO          FAIR      82  67  60 SW6       29.92F
$$



USA.gov is the U.S. government's official web portal to all federal, state and local government web resources and services.